| time (UTC) | temp F | wind direction | speed MPH | gust MPH | rain 1hr in | rain 24hr in | rain mn in | humidity % | barometer mb |
| 20260906090043 | 0 | 0.0 | 0.0 | 0.00 | 0.00 | 0.00 | 1010.6 | ||
| 20260906084528 | 0 | 0.0 | 0.0 | 0.00 | 0.00 | 0.00 | 1010.7 | ||
| 20260906083030 | 0 | 0.0 | 0.0 | 0.00 | 0.00 | 0.00 | 1011.1 | ||
| 20260906081516 | 0 | 0.0 | 0.0 | 0.00 | 0.00 | 0.00 | 1011.0 | ||
| 20260906080008 | 0 | 0.0 | 0.0 | 0.00 | 0.00 | 0.00 | 1010.8 | ||
| 20260906074519 | 69 | 360 | 0.0 | 0.0 | 0.00 | 0.00 | 0.00 | 84 | 1010.2 |
| 20260906073004 | 70 | 360 | 0.0 | 0.0 | 0.00 | 0.00 | 0.00 | 82 | 1010.0 |
| 20260906071503 | 70 | 360 | 0.0 | 0.0 | 0.00 | 0.00 | 0.00 | 83 | 1010.2 |
| 20260906070003 | 69 | 360 | 0.0 | 0.0 | 0.00 | 0.00 | 0.00 | 83 | 1010.2 |
| 20260906064502 | 70 | 360 | 0.0 | 0.0 | 0.00 | 0.00 | 0.00 | 82 | 1007.9 |
| 20260906063002 | 69 | 360 | 0.0 | 0.0 | 0.00 | 0.00 | 0.00 | 84 | 1007.9 |
| 20260906061606 | 68 | 360 | 0.0 | 0.0 | 0.00 | 0.00 | 0.00 | 87 | 1008.1 |
| 20260906060057 | 67 | 360 | 0.0 | 0.0 | 0.00 | 0.00 | 0.00 | 88 | 1008.7 |
| 20260906054603 | 68 | 360 | 0.0 | 0.0 | 0.00 | 0.00 | 0.00 | 89 | 1008.7 |
| 20260906053110 | 68 | 360 | 0.0 | 0.0 | 0.00 | 0.00 | 0.00 | 89 | 1008.6 |
| 20260906051553 | 67 | 360 | 0.0 | 0.0 | 0.00 | 0.00 | 0.00 | 91 | 1009.1 |
| 20260906050053 | 67 | 360 | 0.0 | 0.0 | 0.00 | 0.00 | 0.00 | 91 | 1009.0 |
| 20260906044552 | 67 | 360 | 0.0 | 0.0 | 0.00 | 0.00 | 0.00 | 91 | 1008.8 |
| 20260906043053 | 68 | 360 | 0.0 | 0.0 | 0.00 | 0.00 | 0.00 | 90 | 1009.1 |
| 20260906041555 | 68 | 360 | 0.0 | 0.0 | 0.00 | 0.00 | 0.00 | 90 | 1009.3 |
| 20260906040050 | 69 | 360 | 0.0 | 0.0 | 0.00 | 0.00 | 0.00 | 88 | 1009.0 |
| 20260906034550 | 70 | 360 | 0.0 | 0.0 | 0.00 | 0.00 | 0.00 | 87 | 1009.2 |
| 20260906033049 | 69 | 360 | 0.0 | 0.0 | 0.00 | 0.00 | 0.00 | 89 | 1009.4 |
| 20260906031522 | 69 | 360 | 0.0 | 0.0 | 0.00 | 0.00 | 0.00 | 88 | 1009.4 |
| 20260906030022 | 69 | 360 | 0.0 | 0.0 | 0.00 | 0.00 | 0.00 | 87 | 1009.4 |
| 20260906024516 | 69 | 360 | 0.0 | 0.0 | 0.00 | 0.00 | 0.00 | 87 | 1009.4 |
| 20260906023018 | 69 | 360 | 0.0 | 0.0 | 0.00 | 0.00 | 0.00 | 88 | 1009.9 |
| 20260906021515 | 68 | 360 | 0.0 | 0.0 | 0.00 | 0.00 | 0.00 | 91 | 1009.7 |
| 20260906020014 | 68 | 360 | 0.0 | 0.0 | 0.00 | 0.00 | 0.00 | 90 | 1009.4 |
| 20260906014530 | 68 | 360 | 0.0 | 0.0 | 0.00 | 0.00 | 0.00 | 91 | 1009.8 |
| 20260906013021 | 68 | 360 | 0.0 | 0.0 | 0.00 | 0.00 | 0.00 | 91 | 1009.8 |
| 20260906011511 | 68 | 360 | 0.0 | 0.0 | 0.00 | 0.00 | 0.00 | 90 | 1009.7 |
| 20260906010033 | 68 | 360 | 0.0 | 0.0 | 0.00 | 0.00 | 0.00 | 90 | 1009.7 |
| 20260906004508 | 68 | 360 | 0.0 | 0.0 | 0.00 | 0.00 | 0.00 | 91 | 1010.0 |
| 20260906003008 | 68 | 360 | 0.0 | 0.0 | 0.00 | 0.00 | 0.00 | 91 | 1009.7 |
| 20260906001507 | 68 | 360 | 0.0 | 0.0 | 0.00 | 0.00 | 0.00 | 92 | 1009.9 |
| 20260906000007 | 68 | 360 | 0.0 | 0.0 | 0.00 | 0.00 | 0.00 | 92 | 1010.0 |
| 20260905234505 | 68 | 360 | 0.0 | 0.0 | 0.00 | 0.00 | 0.00 | 91 | 1010.2 |
| 20260905233004 | 69 | 360 | 0.0 | 0.0 | 0.00 | 0.00 | 0.00 | 90 | 1010.1 |
| 20260905231505 | 69 | 360 | 0.0 | 0.0 | 0.00 | 0.00 | 0.00 | 90 | 1009.9 |
| 20260905230004 | 69 | 360 | 0.0 | 0.0 | 0.00 | 0.00 | 0.00 | 88 | 1009.8 |
| 20260905224503 | 69 | 360 | 0.0 | 0.0 | 0.00 | 0.00 | 0.00 | 88 | 1009.8 |
| 20260905223002 | 68 | 360 | 0.0 | 0.0 | 0.00 | 0.00 | 0.00 | 89 | 1009.9 |
| 20260905221501 | 68 | 360 | 0.0 | 0.0 | 0.00 | 0.00 | 0.00 | 90 | 1010.0 |
| 20260905220100 | 68 | 360 | 0.0 | 0.0 | 0.00 | 0.00 | 0.00 | 91 | 1010.5 |
| 20260905214558 | 67 | 360 | 0.0 | 0.0 | 0.00 | 0.00 | 0.00 | 94 | 1010.4 |
| 20260905213059 | 66 | 360 | 0.0 | 0.0 | 0.00 | 0.00 | 0.00 | 93 | 1010.8 |
| 20260905211558 | 66 | 360 | 0.0 | 0.0 | 0.00 | 0.00 | 0.00 | 92 | 1011.0 |
| 20260905210059 | 66 | 360 | 0.0 | 0.0 | 0.00 | 0.00 | 0.00 | 92 | 1010.9 |
| 20260905204559 | 67 | 360 | 0.0 | 0.0 | 0.00 | 0.00 | 0.00 | 92 | 1011.3 |
| 20260905203100 | 67 | 360 | 0.0 | 0.0 | 0.00 | 0.00 | 0.00 | 90 | 1011.2 |
| 20260905201604 | 67 | 360 | 0.0 | 0.0 | 0.00 | 0.00 | 0.00 | 90 | 1011.6 |
| 20260905200057 | 65 | 360 | 0.0 | 0.0 | 0.00 | 0.00 | 0.00 | 95 | 1012.5 |
| 20260905194551 | 64 | 360 | 0.0 | 0.0 | 0.00 | 0.00 | 0.00 | 95 | 1012.7 |
| 20260905193050 | 63 | 360 | 0.0 | 0.0 | 0.00 | 0.00 | 0.00 | 96 | 1013.1 |
| 20260905191546 | 66 | 360 | 0.0 | 0.0 | 0.00 | 0.00 | 0.00 | 89 | 1013.0 |
| 20260905190042 | 78 | 360 | 1.0 | 0.0 | 0.00 | 0.00 | 0.00 | 71 | 1009.8 |
| 20260905183036 | 83 | 360 | 0.0 | 0.0 | 0.00 | 0.00 | 0.85 | 68 | 1008.4 |
| 20260905181526 | 85 | 360 | 0.0 | 0.0 | 0.00 | 0.00 | 0.85 | 68 | 1008.4 |
| 20260905180025 | 85 | 360 | 0.0 | 0.0 | 0.00 | 0.00 | 0.85 | 66 | 1008.6 |
| 20260905174518 | 84 | 360 | 0.0 | 0.0 | 0.00 | 0.00 | 0.85 | 70 | 1009.0 |
| 20260905173018 | 84 | 360 | 0.0 | 0.0 | 0.00 | 0.00 | 0.85 | 70 | 1009.2 |
| 20260905171519 | 83 | 360 | 0.0 | 0.0 | 0.00 | 0.00 | 0.85 | 70 | 1009.0 |
| 20260905170017 | 82 | 360 | 0.0 | 0.0 | 0.00 | 0.00 | 0.85 | 71 | 1009.5 |
| 20260905164517 | 82 | 360 | 0.0 | 0.0 | 0.00 | 0.00 | 0.85 | 73 | 1009.9 |
| 20260905163017 | 84 | 360 | 0.0 | 0.0 | 0.00 | 0.00 | 0.85 | 70 | 1009.6 |
| 20260905161511 | 84 | 360 | 0.0 | 0.0 | 0.00 | 0.00 | 0.85 | 66 | 1009.7 |
| 20260905160009 | 84 | 360 | 0.0 | 0.0 | 0.00 | 0.00 | 0.85 | 68 | 1010.0 |
| 20260905154506 | 82 | 360 | 0.0 | 0.0 | 0.00 | 0.00 | 0.85 | 71 | 1010.2 |
| 20260905153100 | 81 | 360 | 0.0 | 0.0 | 0.00 | 0.00 | 0.85 | 74 | 1010.0 |
| 20260905153000 | 81 | 360 | 0.0 | 0.0 | 0.00 | 0.00 | 0.85 | 73 | 1010.2 |
| 20260905151558 | 80 | 360 | 0.0 | 0.0 | 0.00 | 0.00 | 0.85 | 75 | 1010.5 |
| 20260905150059 | 80 | 360 | 0.0 | 0.0 | 0.00 | 0.00 | 0.85 | 75 | 1010.6 |
| 20260905144555 | 80 | 360 | 0.0 | 0.0 | 0.00 | 0.00 | 0.85 | 76 | 1010.5 |
| 20260905143051 | 79 | 360 | 0.0 | 0.0 | 0.00 | 0.00 | 0.85 | 77 | 1010.8 |
| 20260905141548 | 78 | 360 | 0.0 | 0.0 | 0.00 | 0.00 | 0.85 | 77 | 1010.9 |
| 20260905140049 | 78 | 360 | 0.0 | 0.0 | 0.00 | 0.00 | 0.85 | 78 | 1011.0 |
| 20260905134548 | 76 | 360 | 0.0 | 0.0 | 0.00 | 0.00 | 0.85 | 81 | 1011.2 |
| 20260905133039 | 76 | 360 | 0.0 | 0.0 | 0.00 | 0.00 | 0.85 | 81 | 1011.7 |
| 20260905131541 | 74 | 360 | 0.0 | 0.0 | 0.00 | 0.00 | 0.85 | 84 | 1011.8 |
| 20260905130042 | 72 | 360 | 0.0 | 0.0 | 0.00 | 0.00 | 0.57 | 88 | 1012.1 |
| 20260905124539 | 71 | 360 | 0.0 | 0.0 | 0.00 | 0.00 | 0.57 | 89 | 1012.0 |
| 20260905123036 | 70 | 360 | 0.0 | 0.0 | 0.00 | 0.00 | 0.57 | 89 | 1012.2 |
| 20260905121542 | 70 | 360 | 0.0 | 0.0 | 0.00 | 0.00 | 0.57 | 89 | 1012.0 |
| 20260905120034 | 69 | 360 | 0.0 | 0.0 | 0.00 | 0.00 | 0.57 | 89 | 1011.8 |
| 20260905114542 | 69 | 360 | 0.0 | 0.0 | 0.00 | 0.00 | 0.49 | 90 | 1011.7 |
| 20260905113028 | 0 | 0.0 | 0.0 | 0.00 | 0.00 | 0.49 | 1011.6 | ||
| 20260905111531 | 0 | 0.0 | 0.0 | 0.00 | 0.00 | 0.49 | 1011.4 | ||
| 20260905110022 | 0 | 0.0 | 0.0 | 0.00 | 0.00 | 0.49 | 1011.3 | ||
| 20260905104515 | 0 | 0.0 | 0.0 | 0.00 | 0.00 | 0.49 | 1011.1 | ||
| 20260905103012 | 0 | 0.0 | 0.0 | 0.00 | 0.00 | 0.49 | 1011.1 | ||
| 20260905101505 | 0 | 0.0 | 0.0 | 0.00 | 0.00 | 0.49 | 1010.9 | ||
| 20260905100110 | 0 | 0.0 | 0.0 | 0.00 | 0.00 | 0.49 | 1010.9 | ||
| 20260905094555 | 0 | 0.0 | 0.0 | 0.00 | 0.00 | 0.49 | 1010.9 | ||
| 20260905093049 | 0 | 0.0 | 0.0 | 0.00 | 0.00 | 0.49 | 1010.7 | ||
| 20260905091543 | 0 | 0.0 | 0.0 | 0.00 | 0.00 | 0.49 | 1010.7 |